Temp
79 77 77 76 75 73 72 72 72 73 73 75 75 75 75 76 76 75 75 75 73 72 75 76 77 77 75 75 76 76 74 74 71 71 70 73 72 73 81 79 80 77 75
79 77 77 77 77 75 73 75 74 73 72 72 71 73 75 76 74 75 74 79 74 73 75 74 75 81 75 76 75 74 78 76 73 71 72 76 79 79 78 77 81 85 80
81 79 76 77 77 76 76 75 74 73 72 72 71 71 72 75 75 76 76 75 76 75 75 75 75 75 73 75 74 73 73 75 73 71 71 73 73 75 75 77 78 77 81
81 79 77 77 78 77 77 76 77 73 72 70 69 70 72 75 76 76 76 75 75 76 76 75 75 73 72 71 73 73 73 72 71 70 70 70 71 73 73 72 71 73 73
80 79 77 79 78 79 77 75 75 75 75 72 71 73 75 77 80 76 76 75 74 75 76 76 74 75 74 73 73 72 72 70 69 69 68 69 69 69 69 70 69 70 70
80 78 79 78 79 78 76 77 76 74 74 73 73 74 74 78 78 74 74 74 74 74 73 74 74 74 73 71 73 73 73 71 70 68 68 67 68 69 70 70 68 68 67
79 79 79 79 77 77 76 76 75 75 74 74 73 73 73 73 70 72 76 75 74 73 74 74 75 81 76 76 74 70 69 69 71 71 69 69 69 70 70 69 68 68 68
79 80 79 77 77 77 77 75 74 75 75 74 75 74 73 75 69 71 72 75 75 75 74 74 73 74 73 74 74 73 73 74 72 71 70 72 71 71 71 71 70 69 69
78 77 77 77 77 76 76 76 77 77 75 76 76 74 74 72 66 70 69 72 72 73 74 74 73 73 73 70 72 72 72 72 75 70 69 69 70 70 71 68 65 64 62
75 78 79 78 77 77 77 77 77 77 77 76 75 75 73 74 63 64 67 71 70 71 72 73 70 72 68 64 71 71 69 69 70 70 71 70 69 71 68 68 68 64 63
77 75 77 79 78 78 77 77 78 75 76 73 74 74 76 75 68 62 63 70 69 70 70 71 72 65 59 60 64 70 69 67 68 67 67 67 69 69 69 68 69 68 65
75 75 77 77 78 79 77 76 75 74 74 72 72 72 73 71 65 61 61 64 67 69 69 69 64 58 57 58 63 65 61 62 65 65 64 64 64 66 68 71 71 69 69
72 74 75 76 76 76 74 75 73 74 72 72 71 70 70 71 71 61 59 59 61 67 70 67 59 55 56 59 59 62 61 62 64 63 63 63 64 66 67 69 68 69 69
70 71 73 74 75 75 75 74 74 73 75 70 70 70 70 70 71 65 64 62 61 62 62 62 62 61 63 62 63 59 61 63 64 63 64 68 66 64 64 64 63 64 63
69 70 73 73 72 74 75 71 73 74 73 75 73 72 71 70 71 65 64 65 64 63 64 64 62 62 63 63 64 64 63 63 63 64 64 65 67 64 62 64 63 63 61
66 66 68 71 73 73 72 62 54 55 55 57 62 67 64 58 59 55 54 54 55 56 64 65 65 64 64 64 65 64 63 64 63 63 63 62 61 62 62 62 62 61 60
62 63 63 63 66 64 67 66 62 56 52 50 51 56 57 59 50 51 51 52 52 58 65 64 64 64 65 64 63 62 61 61 63 62 61 61 61 61 61 61 61 60 59
62 58 63 64 64 64 63 63 65 64 62 60 50 53 48 46 45 47 48 56 61 61 64 64 64 65 64 63 62 61 61 61 60 60 60 60 60 60 59 59 58 58 56
62 63 64 63 63 62 64 64 63 63 65 63 56 52 48 44 44 46 49 64 64 63 63 64 65 65 63 63 62 61 61 61 60 60 60 60 59 59 59 60 60 54 55
62 61 62 62 62 63 63 62 62 61 62 66 62 61 56 54 57 58 59 62 64 64 65 65 64 64 63 62 62 61 60 59 59 58 58 60 61 61 60 59 59 58 58
63 61 62 61 61 61 62 62 62 62 61 63 65 64 56 64 65 64 64 63 64 65 66 65 64 64 63 62 61 60 59 59 59 61 61 61 61 60 60 59 58 58 57
63 62 62 61 62 64 63 63 62 63 64 66 66 66 52 71 70 68 66 67 67 67 68 67 65 65 64 63 61 60 59 59 60 62 62 61 61 60 59 58 58 57 56
65 64 63 63 65 62 62 63 63 64 65 66 67 62 63 72 71 70 70 71 69 68 68 68 67 66 65 65 64 62 60 59 61 64 62 61 60 60 59 57 56 56 55
65 65 66 65 65 63 64 64 64 59 64 65 66 65 68 71 71 72 74 73 72 70 69 68 68 69 67 65 64 64 63 63 62 62 61 59 58 55 57 56 56 56 55
66 66 66 65 63 63 64 64 64 65 65 66 66 69 71 70 71 72 73 73 72 71 70 70 69 70 70 66 66 64 59 51 62 55 61 61 59 59 57 57 57 57 57
68 66 64 63 62 64 66 67 64 65 66 66 68 71 72 72 72 72 73 74 72 70 70 69 70 70 70 68 66 49 39 42 50 47 61 61 61 60 59 60 60 59 59
MSLP
1008.86 1009.54 1010.27 1010.86 1011.35 1011.93 1012.31 1012.34 1013.04 1013.31 1013.82 1013.70 1013.92 1014.28 1014.62 1014.69 1015.11 1015.28 1015.56 1015.78 1015.98 1016.13 1016.17 1016.10 1016.08 1016.16 1016.33 1016.25 1016.02 1015.93 1016.24 1016.29 1016.60 1016.54 1016.11 1015.67 1015.76 1015.15 1014.83 1014.84 1015.09 1015.19 1015.15
1008.24 1009.14 1009.95 1010.51 1011.11 1011.46 1011.89 1012.13 1012.83 1013.13 1013.24 1013.33 1013.67 1013.91 1014.29 1014.48 1014.69 1014.87 1015.29 1015.38 1015.61 1015.81 1015.88 1015.97 1015.98 1015.93 1016.24 1016.17 1016.18 1016.14 1016.18 1016.17 1016.33 1016.52 1016.23 1015.86 1015.69 1015.15 1014.95 1015.15 1014.82 1014.49 1014.60
1007.54 1008.49 1009.37 1010.10 1010.77 1011.10 1011.34 1011.75 1012.22 1012.48 1012.73 1012.91 1013.17 1013.63 1014.01 1014.11 1014.36 1014.57 1014.72 1014.95 1015.00 1015.19 1015.42 1015.61 1015.72 1015.73 1015.92 1015.86 1015.82 1016.02 1016.11 1016.00 1016.19 1016.40 1016.28 1015.73 1015.39 1015.05 1015.17 1014.68 1014.49 1014.51 1014.22
1007.02 1008.02 1008.86 1009.54 1010.21 1010.60 1010.84 1011.28 1011.79 1012.11 1012.52 1012.93 1013.33 1013.32 1013.77 1013.85 1014.01 1014.14 1014.35 1014.49 1014.65 1014.82 1015.06 1015.27 1015.33 1015.54 1015.55 1015.71 1015.80 1015.69 1015.79 1016.06 1015.98 1016.09 1016.05 1015.79 1015.53 1015.23 1015.22 1015.45 1015.23 1015.01 1014.78
1006.65 1007.53 1008.24 1008.82 1009.29 1009.77 1010.10 1010.59 1011.12 1011.55 1011.97 1012.29 1012.61 1013.07 1013.25 1013.28 1013.42 1013.75 1013.94 1014.08 1014.37 1014.53 1014.73 1014.86 1015.21 1015.01 1014.97 1014.79 1015.23 1015.21 1015.44 1015.66 1015.73 1015.87 1016.06 1015.89 1015.75 1015.64 1015.69 1015.62 1015.43 1015.07 1014.65
1006.28 1006.92 1007.63 1008.04 1008.62 1009.30 1009.77 1009.97 1010.51 1011.04 1011.35 1011.77 1012.13 1012.38 1012.67 1012.84 1012.93 1013.16 1013.45 1013.64 1013.83 1014.13 1014.35 1014.47 1014.72 1014.58 1014.51 1014.61 1014.69 1014.67 1014.89 1015.25 1015.33 1015.43 1015.52 1015.62 1015.43 1015.34 1015.28 1015.35 1015.35 1015.22 1014.73
1005.78 1006.45 1007.04 1007.56 1007.99 1008.62 1009.26 1009.65 1010.01 1010.47 1010.87 1011.27 1011.56 1011.84 1012.12 1012.35 1012.52 1012.59 1012.67 1012.88 1013.19 1013.48 1013.75 1014.03 1014.19 1014.17 1014.15 1014.19 1014.29 1014.39 1014.56 1014.39 1014.39 1014.62 1014.89 1014.90 1014.75 1014.49 1014.64 1014.72 1014.81 1014.81 1014.61
1005.32 1005.80 1006.40 1006.95 1007.41 1007.90 1008.53 1009.04 1009.42 1009.74 1010.17 1010.63 1011.01 1011.29 1011.63 1011.72 1011.90 1012.19 1012.50 1012.57 1012.62 1012.89 1013.22 1013.45 1013.57 1013.55 1013.74 1013.96 1014.09 1014.08 1013.96 1013.78 1013.63 1013.80 1013.89 1013.66 1013.55 1013.57 1013.87 1013.98 1014.14 1014.28 1014.16
1004.95 1005.40 1005.80 1006.27 1006.80 1007.30 1007.76 1008.28 1008.70 1009.10 1009.49 1009.88 1010.26 1010.73 1011.12 1011.42 1011.70 1011.88 1012.15 1012.54 1012.69 1012.67 1012.70 1012.77 1012.94 1013.04 1013.10 1013.27 1013.60 1013.71 1013.69 1013.39 1012.82 1012.91 1012.93 1012.92 1012.98 1012.95 1012.96 1013.59 1013.89 1014.37 1014.33
1004.41 1004.67 1005.11 1005.63 1006.17 1006.60 1007.00 1007.54 1008.10 1008.58 1009.02 1009.30 1009.75 1010.02 1010.34 1010.76 1011.16 1011.55 1011.93 1012.27 1012.38 1012.39 1012.32 1012.29 1012.25 1012.40 1012.59 1012.76 1013.05 1013.39 1013.52 1013.35 1013.09 1012.92 1012.84 1012.88 1012.71 1012.63 1012.70 1013.17 1013.31 1013.71 1013.86
1004.08 1004.13 1004.72 1005.11 1005.43 1005.95 1006.48 1006.90 1007.44 1008.12 1008.66 1009.15 1009.41 1009.64 1009.95 1010.25 1010.72 1011.21 1011.56 1011.87 1012.01 1012.08 1012.16 1012.01 1011.83 1011.76 1012.08 1012.11 1012.42 1012.76 1012.96 1013.09 1013.15 1013.15 1013.00 1012.92 1012.84 1012.78 1012.70 1012.54 1012.43 1012.75 1012.88
1004.41 1004.06 1003.97 1004.62 1004.79 1005.38 1006.05 1006.44 1007.02 1007.59 1008.09 1008.38 1009.05 1009.22 1009.40 1009.73 1010.10 1010.78 1011.03 1011.36 1011.55 1011.93 1012.01 1011.71 1011.84 1011.74 1011.85 1011.86 1012.27 1012.41 1012.58 1012.90 1013.18 1013.22 1013.10 1012.88 1012.84 1012.69 1012.29 1012.12 1011.71 1011.84 1011.76
1004.38 1004.13 1003.65 1003.90 1004.57 1005.10 1005.38 1005.98 1006.59 1006.94 1007.53 1007.79 1008.17 1008.54 1008.98 1009.29 1009.80 1010.03 1010.51 1010.97 1011.30 1011.56 1011.72 1011.68 1011.79 1011.80 1011.92 1012.00 1012.02 1012.18 1012.45 1012.88 1013.09 1013.09 1012.82 1012.53 1012.47 1012.35 1012.18 1011.94 1011.76 1011.70 1011.60
1004.70 1004.29 1003.58 1003.60 1003.75 1003.99 1004.46 1005.34 1005.83 1006.21 1006.61 1007.07 1007.48 1007.72 1008.21 1008.95 1009.40 1009.87 1010.55 1011.04 1011.48 1011.57 1011.52 1011.61 1011.67 1011.75 1011.88 1011.95 1012.05 1012.15 1012.41 1012.50 1012.77 1012.77 1012.67 1012.24 1012.08 1012.06 1012.17 1012.04 1012.19 1012.09 1012.13
1004.62 1003.99 1003.46 1003.01 1003.07 1003.59 1003.86 1004.36 1004.37 1004.64 1005.06 1005.66 1006.42 1007.01 1007.87 1008.49 1008.65 1009.02 1009.62 1010.34 1010.63 1010.79 1011.22 1011.54 1012.01 1012.08 1011.99 1011.95 1011.76 1011.72 1012.00 1012.21 1012.37 1012.25 1012.34 1012.14 1011.95 1012.03 1012.23 1011.87 1012.05 1012.14 1012.28
1004.40 1004.04 1003.36 1002.77 1002.56 1002.91 1003.51 1004.70 1004.13 1004.71 1004.43 1005.11 1005.57 1006.15 1007.31 1007.63 1007.98 1008.42 1008.95 1009.49 1009.80 1010.13 1010.72 1011.03 1011.39 1011.49 1011.57 1011.40 1011.35 1011.50 1011.62 1012.08 1012.31 1012.10 1012.21 1012.26 1012.14 1012.07 1012.19 1012.00 1011.98 1012.16 1012.33
1004.33 1004.20 1003.56 1003.28 1003.24 1004.00 1004.38 1004.64 1004.89 1004.88 1005.29 1005.46 1005.14 1005.23 1006.00 1006.65 1007.26 1007.76 1008.32 1008.88 1009.36 1010.03 1010.09 1010.45 1010.79 1010.91 1010.90 1011.10 1011.22 1011.34 1011.63 1011.68 1011.67 1011.98 1012.13 1012.17 1012.14 1012.06 1012.13 1012.23 1012.32 1012.44 1012.63
1003.88 1003.97 1003.66 1003.62 1003.82 1003.78 1005.41 1005.61 1005.45 1006.39 1006.05 1006.18 1006.18 1005.97 1006.32 1006.74 1007.23 1007.83 1008.40 1009.02 1009.86 1009.73 1009.91 1010.12 1010.19 1010.22 1010.47 1010.77 1011.02 1011.10 1011.42 1011.49 1011.71 1011.94 1012.01 1012.10 1012.19 1012.13 1012.22 1012.46 1012.54 1012.65 1012.87
1003.55 1003.69 1003.70 1003.95 1003.96 1002.94 1001.73 1004.73 1005.87 1007.06 1007.52 1007.29 1006.80 1006.89 1007.12 1007.60 1008.21 1008.59 1008.29 1008.76 1009.26 1009.44 1009.37 1009.47 1009.54 1009.89 1010.28 1010.51 1010.68 1010.90 1011.16 1011.57 1011.66 1011.73 1011.82 1011.95 1012.18 1012.21 1012.28 1012.44 1012.52 1012.67 1012.78
1002.96 1002.84 1002.95 1003.37 1003.63 1002.85 1002.24 1002.98 1005.03 1005.86 1006.69 1006.80 1007.14 1006.64 1007.30 1008.05 1008.34 1008.24 1008.34 1008.19 1008.16 1008.38 1008.80 1008.98 1009.21 1009.49 1009.83 1010.17 1010.53 1010.73 1011.08 1011.55 1011.70 1011.72 1011.78 1011.81 1011.99 1012.16 1012.25 1012.40 1012.58 1012.83 1012.96
1002.37 1002.15 1002.01 1002.39 1002.62 1002.11 1001.70 1001.36 1002.73 1002.87 1003.44 1006.06 1006.17 1006.55 1005.54 1005.89 1006.60 1007.21 1007.34 1007.30 1007.47 1007.56 1007.70 1008.56 1009.14 1009.16 1009.41 1009.79 1010.37 1010.49 1011.02 1011.46 1011.35 1011.32 1011.52 1011.59 1011.74 1011.99 1012.04 1012.22 1012.53 1012.80 1012.96
1001.72 1001.62 1001.95 1001.97 1001.91 1002.06 1001.93 1001.79 1002.19 1002.23 1003.59 1001.54 1002.73 1004.43 1004.67 1004.95 1005.40 1006.20 1006.15 1006.33 1006.37 1006.70 1006.81 1007.50 1007.98 1008.70 1009.18 1009.55 1009.88 1010.19 1010.76 1011.02 1010.96 1010.99 1011.11 1011.27 1011.44 1011.81 1011.99 1012.25 1012.52 1012.73 1012.80
1001.09 1001.17 1001.26 1001.29 1001.06 1001.21 1001.42 1001.10 1001.66 1002.12 1001.00 1001.29 1002.08 1002.92 1004.09 1004.11 1004.55 1005.11 1005.19 1005.15 1005.30 1006.00 1006.59 1007.02 1007.69 1008.01 1008.70 1009.21 1009.18 1009.56 1009.98 1010.22 1010.28 1010.47 1010.67 1010.97 1011.27 1011.69 1011.89 1012.15 1012.32 1012.53 1012.67
1000.42 1000.45 1000.33 1000.55 1000.84 1001.12 1000.91 1000.32 1000.57 1001.53 1001.80 1001.94 1001.83 1002.29 1003.09 1003.34 1003.74 1003.92 1003.90 1004.26 1004.64 1005.44 1006.00 1006.69 1007.31 1007.73 1008.27 1008.75 1008.67 1008.93 1009.25 1009.46 1009.50 1009.89 1010.32 1010.75 1010.98 1011.20 1011.62 1011.87 1012.06 1012.23 1012.24
1000.00 999.65 999.61 1000.34 1000.84 1000.99 1001.22 1001.46 1001.75 1001.58 1000.94 1002.05 1002.22 1001.99 1002.57 1003.00 1003.00 1003.17 1003.17 1003.29 1004.41 1005.04 1005.49 1006.16 1007.03 1007.49 1007.90 1008.29 1008.26 1008.48 1008.78 1009.08 1009.04 1009.53 1009.94 1010.45 1010.74 1011.10 1011.40 1011.46 1011.49 1011.55 1011.58
999.19 999.10 999.36 999.54 1000.25 1000.76 1001.46 1001.59 1001.73 1001.44 1001.87 1002.29 1002.43 1002.10 1002.23 1002.41 1002.58 1002.56 1002.81 1003.17 1003.94 1004.59 1005.23 1005.61 1006.55 1007.07 1007.37 1007.74 1008.03 1008.28 1008.60 1008.87 1009.07 1009.28 1009.54 1010.05 1010.35 1010.70 1010.86 1010.77 1010.87 1011.00 1010.98
Wind_Speed
9 9 9 9 9 9 9 10 5 4 9 10 9 8 7 7 7 6 4 5 6 6 4 3 3 3 2 2 3 3 2 1 1 2 4 5 5 10 5 3 5 6 6
9 10 9 9 9 10 10 10 7 6 7 8 7 6 6 7 6 7 7 6 7 7 5 3 4 2 2 3 2 3 2 2 1 1 5 3 6 4 3 4 6 5 5
12 12 9 10 10 10 10 9 7 8 7 6 6 6 5 7 7 7 7 7 6 6 6 5 6 4 3 3 3 2 2 2 1 2 3 2 4 2 3 2 1 4 3
13 12 10 9 10 10 9 9 10 8 9 7 6 7 7 7 7 7 7 7 6 5 6 6 5 4 3 3 5 5 2 1 1 1 2 2 1 2 1 0 3 1 3
13 12 12 12 10 11 11 8 7 8 10 8 7 8 10 7 7 7 7 7 7 6 4 3 5 7 8 8 5 5 3 3 3 2 2 1 2 1 1 2 2 3 3
13 13 14 13 12 10 9 12 10 7 9 9 8 8 7 7 11 10 8 7 7 7 6 5 5 8 9 13 11 9 6 5 4 3 3 4 4 3 2 2 2 2 4
13 13 15 14 13 11 8 9 9 10 8 10 8 7 8 7 10 9 8 7 7 7 6 6 5 4 4 4 5 8 9 10 8 5 5 6 5 5 3 2 2 3 4
13 14 14 14 13 13 12 10 10 9 11 9 9 8 7 7 13 11 9 6 5 7 7 7 7 7 6 6 5 5 5 6 6 5 7 9 7 5 5 4 4 3 3
12 12 12 13 14 13 14 13 11 11 10 11 9 10 9 7 13 14 8 6 6 6 6 7 7 7 10 8 6 6 5 5 5 3 8 8 9 9 7 3 3 1 3
9 13 13 14 14 15 14 14 10 10 11 9 10 10 11 9 13 14 10 4 6 5 6 8 13 9 11 10 6 5 5 5 2 4 4 3 5 6 7 6 4 5 3
7 9 11 13 14 14 12 11 12 10 9 9 10 8 10 10 11 14 14 6 5 4 4 5 5 12 11 11 8 5 6 2 3 3 4 4 4 4 5 5 7 7 4
11 8 9 12 11 11 12 11 10 10 12 11 9 7 6 6 10 14 15 12 7 4 5 2 2 8 10 10 7 7 7 4 2 3 3 3 3 4 4 4 3 5 6
7 8 7 8 10 10 12 12 10 12 10 9 8 8 6 5 6 12 14 13 9 5 4 6 9 8 8 6 7 5 4 3 3 3 4 3 2 2 2 3 3 4 2
7 9 7 8 9 11 10 11 11 12 10 8 6 6 6 4 6 5 5 4 6 6 4 5 6 5 4 4 3 4 4 4 4 4 3 3 2 1 1 0 1 2 2
7 10 10 8 8 10 12 8 11 9 11 10 8 8 8 6 8 10 10 7 7 7 5 3 1 3 4 4 5 4 4 3 3 3 3 2 1 1 2 1 1 1 1
6 5 4 4 6 8 7 3 11 8 4 8 12 9 3 3 11 16 16 13 13 11 3 4 4 4 5 5 4 4 3 4 3 2 1 1 1 1 1 2 0 1 2
3 3 1 3 4 10 9 2 3 4 6 6 6 12 13 11 11 15 16 10 7 8 3 3 4 5 5 3 5 4 4 3 3 2 1 1 2 3 3 3 3 3 4
5 5 3 4 5 9 7 8 7 8 2 3 7 4 6 9 8 12 16 10 3 1 3 5 5 5 3 5 5 4 3 3 2 2 1 1 1 1 3 2 2 2 2
5 4 4 3 5 6 9 5 8 7 9 5 2 5 7 9 8 5 4 4 5 5 5 5 4 3 5 5 5 4 4 3 3 2 2 2 2 2 1 1 2 3 1
6 12 10 6 5 6 10 11 10 8 7 7 7 8 7 6 5 6 6 5 5 4 4 5 4 5 5 5 4 4 4 3 2 2 2 2 2 1 1 2 2 2 1
5 4 6 5 3 3 5 13 14 9 4 8 8 9 20 12 9 8 8 6 5 5 5 6 5 5 5 5 5 5 5 3 3 4 3 2 2 1 2 3 2 2 1
5 4 4 4 3 5 7 9 6 5 8 9 16 15 20 9 9 9 8 7 7 6 5 7 6 5 5 6 6 5 5 5 3 3 4 3 3 3 3 2 2 2 2
5 5 5 4 3 2 3 4 4 3 3 9 7 9 12 9 9 8 8 9 6 6 5 6 5 5 5 6 6 7 6 6 5 5 4 4 4 4 3 3 3 3 3
7 6 6 2 2 2 5 5 4 3 5 4 8 10 10 9 7 9 10 9 8 7 6 6 6 7 6 5 5 5 5 5 5 6 7 5 5 5 3 3 4 5 4
8 7 5 5 8 4 7 8 5 4 5 3 3 4 6 5 6 6 7 9 8 8 7 7 5 9 9 10 8 9 11 14 7 8 5 5 5 6 5 4 5 5 5
6 5 5 5 6 5 6 7 6 6 4 5 9 7 7 7 6 5 8 9 8 7 7 7 7 9 11 8 9 11 11 12 8 8 6 3 4 5 5 6 7 4 6
Wind_Direction
156 159 158 161 168 163 186 216 202 209 271 185 172 175 191 186 191 187 194 202 228 245 254 220 226 277 297 326 338 359 12 123 142 293 226 217 229 225 229 215 191 196 203
160 158 163 162 168 176 192 213 199 181 194 160 151 153 190 195 195 191 203 219 206 217 240 248 242 262 269 235 315 319 333 330 127 257 212 239 222 261 254 237 234 225 216
158 159 161 168 170 181 191 194 195 169 187 170 154 176 210 207 196 205 203 213 215 216 234 234 242 248 263 251 227 281 309 320 201 188 268 246 249 115 258 293 283 277 259
159 157 164 170 177 183 190 186 195 176 170 180 193 181 216 208 204 212 208 220 231 222 235 240 227 171 164 327 272 243 236 247 42 6 303 297 296 321 81 287 324 316 291
165 166 173 180 183 181 186 188 189 180 176 185 185 207 214 201 208 203 207 208 215 233 245 249 161 203 174 205 237 240 222 228 227 229 255 276 267 293 305 247 263 285 272
177 177 176 181 188 189 187 193 196 182 177 180 192 194 204 213 207 211 208 202 200 203 224 248 220 193 222 220 227 227 212 217 228 203 225 233 255 220 208 216 238 308 311
181 176 180 185 180 187 189 185 183 181 179 190 193 192 204 207 189 199 203 185 194 198 205 220 238 229 206 232 231 222 225 213 203 196 223 223 237 219 197 255 213 225 239
186 183 178 184 183 181 188 188 186 177 184 190 196 198 202 210 185 183 209 201 182 197 200 208 213 228 230 225 239 231 233 227 224 211 216 236 224 222 194 194 212 231 286
185 184 177 180 183 184 193 196 195 190 186 192 194 196 198 212 193 198 178 201 205 215 222 224 214 216 220 196 213 227 246 266 287 300 255 245 241 213 198 137 267 144 285
185 192 189 184 190 196 198 198 194 195 202 192 198 199 199 197 187 191 190 192 200 212 233 237 231 218 212 180 190 207 215 245 298 335 332 310 246 242 238 192 213 210 204
224 196 191 198 194 199 197 193 199 196 197 196 195 197 207 203 188 195 193 191 207 218 233 247 235 219 177 167 176 184 202 172 288 305 298 286 284 271 266 236 225 214 186
324 237 201 203 195 192 195 196 194 198 207 200 193 199 195 190 179 199 196 207 177 192 239 193 187 167 161 157 172 199 178 189 256 277 288 290 286 293 300 329 277 234 218
320 299 212 204 204 205 200 196 193 200 206 209 193 196 188 183 187 186 198 205 196 171 196 189 170 176 173 180 218 198 178 210 234 247 252 259 254 270 330 8 5 8 292
303 284 252 218 213 209 211 205 196 204 195 199 188 189 181 197 191 164 188 177 227 219 183 174 197 192 196 221 223 198 211 213 213 238 256 235 205 46 340 299 359 344 1
291 275 250 222 202 212 218 226 203 199 188 187 191 180 184 195 198 178 173 185 190 206 173 152 182 221 231 234 237 204 182 207 240 253 220 218 191 29 310 335 281 331 179
296 321 318 264 220 215 205 166 43 28 178 181 167 159 146 207 183 182 184 186 188 180 157 180 209 213 228 246 242 153 125 144 194 155 135 99 171 105 324 344 339 352 314
253 288 359 61 46 65 19 175 193 65 79 51 199 184 171 179 188 185 180 176 189 149 164 196 203 218 237 180 156 153 161 169 120 62 122 118 56 67 43 21 23 57 39
217 226 184 121 114 102 81 60 359 350 268 152 25 97 131 141 141 162 142 116 120 22 169 204 218 224 221 160 165 158 155 138 141 163 110 32 11 88 43 46 64 96 97
205 211 218 188 178 177 117 336 355 7 327 288 143 49 81 92 101 119 113 145 171 198 206 226 220 168 151 145 143 137 141 138 146 130 123 108 71 77 86 56 52 83 131
221 229 226 214 224 226 159 170 236 233 228 245 228 181 155 155 176 176 199 189 177 182 199 217 155 143 143 146 142 133 117 136 151 125 96 106 130 137 99 76 58 26 356
234 217 154 164 170 250 208 185 205 189 170 229 219 222 179 173 171 184 191 186 189 195 186 146 157 150 147 136 139 131 139 159 157 145 172 164 140 142 140 136 144 131 167
213 162 157 182 174 200 230 220 207 183 213 272 212 192 182 181 170 184 182 184 187 200 173 154 146 164 165 156 156 150 162 176 175 178 177 169 153 142 141 143 154 165 176
199 190 223 214 181 203 211 109 134 189 17 306 193 151 175 187 174 183 183 181 171 156 145 134 140 133 146 164 167 166 165 180 189 172 163 160 152 162 170 175 183 197 200
199 210 226 158 137 223 223 121 75 296 232 218 173 154 177 186 181 186 174 162 151 143 142 139 154 162 153 177 169 167 168 173 163 162 155 154 176 175 161 185 210 227 217
207 211 230 164 169 189 124 123 172 274 22 345 282 157 172 184 181 158 154 140 146 148 147 144 154 157 165 148 149 166 176 170 164 158 158 173 185 185 200 209 208 223 225
209 205 188 175 151 136 163 164 196 148 188 239 187 200 183 181 184 148 145 141 143 143 150 149 168 171 169 151 154 144 140 142 137 153 149 162 205 206 207 219 234 230 239